Location: T�bingen+AIT
(48.5342°N, 9.0700°E)
Time: 20:29:22
(UTC+02:00)

USA 229 - Pass Details

Date: 14 September 2017
Orbit: 1049 x 1163 km, 63.4° (Epoch: 19 September)

Event Time Altitude Azimuth Distance (km) Brightness Sun altitude
Rises 20:01:59 0° 316° (NW) 3,915 7.7 -4.7°
Reaches altitude 10° 20:04:47 10° 322° (NW) 2,973 6.8 -5.2°
Maximum altitude 20:11:34 46° 35° (NE) 1,482 4.3 -6.3°
Drops below altitude 10° 20:18:29 10° 108° (ESE) 3,038 5.4 -7.4°
Enters shadow 20:18:53 - 109° (ESE) 3,170 5.5 -7.4°
